This is the latest recevied weather packets stored in our database for station/object KB1RMA-4. If no packets are shown the sender has not sent any weather packets the latest 10 day(s).
| Time | Temp. | Humidity | Pressure | Rain* | Wind** | Luminosity | Snow |
|---|---|---|---|---|---|---|---|
| 1788536672 | 27.22° C | 59% | 1009.2 hPa | 0 mm | - | 662 W/m² | - |
| 1788536367 | 27.22° C | 64% | 1009.1 hPa | 0 mm | - | 675 W/m² | - |
| 1788536062 | 27.22° C | 63% | 1009.5 hPa | 0 mm | - | 684 W/m² | - |
| 1788535759 | 26.67° C | 64% | 1009.4 hPa | 0 mm | - | 693 W/m² | - |
| 1788535454 | 27.22° C | 64% | 1009.2 hPa | 0 mm | - | 682 W/m² | - |
| 1788535153 | 26.67° C | 66% | 1009.4 hPa | 0 mm | - | 670 W/m² | - |
| 1788534848 | 26.67° C | 67% | 1009.4 hPa | 0 mm | - | 688 W/m² | - |
| 1788534544 | 26.11° C | 69% | 1009.5 hPa | 0 mm | - | 683 W/m² | - |
| 1788534239 | 26.11° C | 68% | 1009.7 hPa | 0 mm | - | 682 W/m² | - |
| 1788533936 | 26.11° C | 70% | 1009.5 hPa | 0 mm | - | 688 W/m² | - |
| 1788533633 | 25.56° C | 71% | 1009.7 hPa | 0 mm | - | 681 W/m² | - |
| 1788533328 | 26.11° C | 69% | 1009.8 hPa | 0 mm | - | 684 W/m² | - |
| 1788533024 | 25.56° C | 71% | 1009.7 hPa | 0 mm | - | 695 W/m² | - |
| 1788532719 | 25.56° C | 73% | 1009.7 hPa | 0 mm | - | 680 W/m² | - |
| 1788532416 | 25° C | 72% | 1009.9 hPa | 0 mm | - | 685 W/m² | - |
| 1788532112 | 25.56° C | 73% | 1009.6 hPa | 0 mm | - | 679 W/m² | - |
| 1788531807 | 24.44° C | 76% | 1009.8 hPa | 0 mm | - | 684 W/m² | - |
| 1788531502 | 23.89° C | 78% | 1009.9 hPa | 0 mm | - | 660 W/m² | - |
| 1788531197 | 23.33° C | 81% | 1009.8 hPa | 0 mm | - | 640 W/m² | - |
| 1788530893 | 22.78° C | 83% | 1010 hPa | 0 mm | - | 638 W/m² | - |
| 1788530588 | 22.78° C | 84% | 1010 hPa | 0 mm | - | 402 W/m² | - |
| 1788530287 | 22.22° C | 85% | 1009.8 hPa | 0 mm | - | 219 W/m² | - |
| 1788529982 | 21.67° C | 86% | 1010 hPa | 0 mm | - | 151 W/m² | - |
| 1788529678 | 21.67° C | 87% | 1010 hPa | 0 mm | - | 275 W/m² | - |
| 1788529377 | 21.11° C | 88% | 1010 hPa | 0 mm | - | 98 W/m² | - |
* Rain latest hour (hover to see other rain measurements)
** Current wind speed in m/s (hover to see current wind gust speed)